Location: Unspecified
(38.4779°N, 0.0000°E)
Time: 07:02:06
(UTC+00:00)

PARASOL - Visible Passes

Search period start: 05 April 2026 00:00
Search period end: 15 April 2026 00:00
Orbit: 638 x 656 km, 98.5° (Epoch: 29 March)

Date Brightness Start Highest point End Pass type
(mag) Time Alt. Az. Time Alt. Az. Time Alt. Az.
5 Apr ? 05:05:55 10° SSE 05:10:16 51° ENE 05:14:39 10° N visible
6 Apr ? 19:00:36 10° N 19:04:40 34° WNW 19:08:43 10° SW visible
7 Apr ? 04:22:01 10° ESE 04:24:58 17° ENE 04:27:56 10° NNE visible
7 Apr ? 19:26:45 10° NNW 19:29:56 19° WNW 19:33:06 10° WSW visible
8 Apr ? 04:46:17 10° SE 04:50:13 31° ENE 04:54:11 10° N visible
8 Apr ? 19:54:05 10° NW 19:55:06 11° WNW 19:56:07 10° WNW visible
10 Apr ? 04:04:04 10° ENE 04:05:04 11° ENE 04:06:03 10° NE visible
10 Apr ? 19:06:00 10° N 19:09:56 31° WNW 19:13:51 10° SW visible
11 Apr ? 04:27:03 10° ESE 04:30:13 19° ENE 04:33:25 10° NNE visible
11 Apr ? 19:32:14 10° NNW 19:35:11 18° WNW 19:38:07 10° WSW visible
12 Apr ? 04:51:26 10° SE 04:55:28 34° ENE 04:59:33 10° N visible
14 Apr ? 04:08:38 10° E 04:10:17 12° ENE 04:11:56 10° NE visible
14 Apr ? 19:11:21 10° N 19:15:10 28° WNW 19:18:57 10° SW visible
